• In Russia
  • List of Countries
  • For 7 days
  • Water Temperature
  • Satellite Maps
  • Weather Map
  • Weather Widgets
  • user-avatar
    Login

    Hourly Weather Kiskunmajsa

    Today, 22 September, Friday

    Time Temperature Precipitation Wind Pressure Humidity
    00:00 +10°C° 0.1 mm 5 mps 752 mmHg 86%
    01:00 +11°C° 0.1 mm 4 mps 752 mmHg 86%
    02:00 +11°C° 0.1 mm 4 mps 752 mmHg 87%
    03:00 +11°C° 0.1 mm 4 mps 752 mmHg 87%
    04:00 +11°C° 0.1 mm 4 mps 752 mmHg 88%
    05:00 +11°C° 0 mm 4 mps 753 mmHg 87%
    06:00 +12°C° 0 mm 5 mps 753 mmHg 85%
    07:00 +12°C° 0 mm 5 mps 753 mmHg 84%
    08:00 +13°C° 0 mm 5 mps 754 mmHg 79%
    09:00 +14°C° 0 mm 5 mps 754 mmHg 74%
    10:00 +15°C° 0 mm 5 mps 754 mmHg 68%
    11:00 +16°C° 0 mm 5 mps 754 mmHg 63%
    12:00 +17°C° 0 mm 5 mps 754 mmHg 58%
    13:00 +20°C° 0 mm 5 mps 754 mmHg 52%
    14:00 +19°C° 0.1 mm 5 mps 754 mmHg 52%
    15:00 +19°C° 0.1 mm 5 mps 754 mmHg 52%
    16:00 +19°C° 0.1 mm 4 mps 754 mmHg 52%
    17:00 +18°C° 0 mm 4 mps 754 mmHg 58%
    18:00 +17°C° 0 mm 4 mps 755 mmHg 63%
    19:00 +14°C° 0 mm 3 mps 755 mmHg 68%
    20:00 +14°C° 0 mm 3 mps 755 mmHg 71%
    21:00 +13°C° 0 mm 3 mps 755 mmHg 74%
    22:00 +13°C° 0 mm 3 mps 755 mmHg 77%
    23:00 +12°C° 0 mm 3 mps 755 mmHg 79%

    Tomorrow, 23 September, Saturday

    Time Temperature Precipitation Wind Pressure Humidity
    00:00 +12°C° 0 mm 3 mps 755 mmHg 81%
    01:00 +12°C° 0 mm 3 mps 756 mmHg 82%
    02:00 +11°C° 0 mm 3 mps 755 mmHg 84%
    03:00 +10°C° 0 mm 3 mps 755 mmHg 86%
    04:00 +10°C° 0 mm 3 mps 755 mmHg 89%
    05:00 +11°C° 0 mm 3 mps 755 mmHg 85%
    06:00 +11°C° 0 mm 4 mps 755 mmHg 82%
    07:00 +12°C° 0 mm 4 mps 755 mmHg 78%
    08:00 +14°C° 0 mm 5 mps 755 mmHg 70%
    09:00 +16°C° 0 mm 5 mps 755 mmHg 62%
    10:00 +19°C° 0 mm 5 mps 755 mmHg 54%
    11:00 +19°C° 0 mm 6 mps 755 mmHg 51%
    12:00 +20°C° 0 mm 6 mps 754 mmHg 49%
    13:00 +21°C° 0 mm 6 mps 754 mmHg 46%
    14:00 +20°C° 0 mm 6 mps 754 mmHg 48%
    15:00 +20°C° 0 mm 6 mps 754 mmHg 49%
    16:00 +19°C° 0 mm 5 mps 754 mmHg 50%
    17:00 +18°C° 0 mm 4 mps 754 mmHg 55%
    18:00 +17°C° 0 mm 3 mps 754 mmHg 59%
    19:00 +16°C° 0 mm 2 mps 754 mmHg 64%
    20:00 +15°C° 0.1 mm 2 mps 754 mmHg 66%
    21:00 +15°C° 0.1 mm 2 mps 754 mmHg 68%
    22:00 +15°C° 0.1 mm 2 mps 754 mmHg 71%
    23:00 +14°C° 0.3 mm 3 mps 754 mmHg 73%

    Day after tomorrow, 24 September, Sunday

    Time Temperature Precipitation Wind Pressure Humidity
    00:00 +14°C° 0.3 mm 3 mps 753 mmHg 75%
    01:00 +14°C° 0.3 mm 4 mps 753 mmHg 77%
    02:00 +14°C° 0.3 mm 4 mps 753 mmHg 79%
    03:00 +13°C° 0.3 mm 4 mps 753 mmHg 82%
    04:00 +13°C° 0.3 mm 4 mps 753 mmHg 84%
    05:00 +13°C° 0.1 mm 4 mps 753 mmHg 83%
    06:00 +14°C° 0.1 mm 4 mps 753 mmHg 82%
    07:00 +14°C° 0.1 mm 4 mps 753 mmHg 82%
    08:00 +14°C° 0 mm 4 mps 754 mmHg 78%
    09:00 +15°C° 0 mm 4 mps 754 mmHg 75%
    10:00 +17°C° 0 mm 4 mps 754 mmHg 72%
    11:00 +17°C° 0 mm 4 mps 754 mmHg 71%
    12:00 +17°C° 0 mm 4 mps 754 mmHg 69%
    13:00 +18°C° 0 mm 3 mps 754 mmHg 68%
    14:00 +18°C° 0 mm 3 mps 754 mmHg 67%
    15:00 +18°C° 0 mm 2 mps 754 mmHg 66%
    16:00 +18°C° 0 mm 2 mps 754 mmHg 64%
    17:00 +17°C° 0 mm 2 mps 754 mmHg 69%
    18:00 +16°C° 0 mm 1 mps 754 mmHg 74%
    19:00 +15°C° 0 mm 1 mps 755 mmHg 79%
    20:00 +14°C° 0 mm 1 mps 755 mmHg 80%
    21:00 +14°C° 0 mm 1 mps 755 mmHg 81%
    22:00 +14°C° 0 mm 1 mps 755 mmHg 82%
    23:00 +14°C° 0 mm 2 mps 755 mmHg 83%

    25 September, Monday

    Time Temperature Precipitation Wind Pressure Humidity
    00:00 +13°C° 0 mm 2 mps 755 mmHg 84%
    01:00 +13°C° 0 mm 2 mps 755 mmHg 84%
    02:00 +13°C° 0 mm 2 mps 755 mmHg 85%
    03:00 +12°C° 0 mm 3 mps 755 mmHg 86%
    04:00 +12°C° 0 mm 3 mps 755 mmHg 87%
    05:00 +13°C° 0 mm 3 mps 755 mmHg 84%
    06:00 +13°C° 0 mm 3 mps 755 mmHg 81%
    07:00 +14°C° 0 mm 4 mps 755 mmHg 78%
    08:00 +17°C° 0 mm 4 mps 755 mmHg 70%
    09:00 +18°C° 0 mm 4 mps 755 mmHg 61%
    10:00 +20°C° 0 mm 4 mps 755 mmHg 53%
    11:00 +22°C° 0 mm 4 mps 755 mmHg 48%
    12:00 +23°C° 0 mm 4 mps 755 mmHg 43%
    13:00 +26°C° 0 mm 4 mps 754 mmHg 38%
    14:00 +26°C° 0 mm 4 mps 754 mmHg 38%
    15:00 +26°C° 0 mm 3 mps 754 mmHg 38%
    16:00 +26°C° 0 mm 3 mps 754 mmHg 39%
    17:00 +24°C° 0 mm 3 mps 754 mmHg 44%
    18:00 +21°C° 0 mm 3 mps 754 mmHg 49%
    19:00 +19°C° 0 mm 3 mps 755 mmHg 53%
    20:00 +19°C° 0 mm 3 mps 755 mmHg 56%
    21:00 +18°C° 0 mm 3 mps 754 mmHg 58%
    22:00 +18°C° 0 mm 3 mps 754 mmHg 60%
    23:00 +17°C° 0 mm 3 mps 754 mmHg 61%

    26 September, Tuesday

    Time Temperature Precipitation Wind Pressure Humidity
    00:00 +17°C° 0 mm 2 mps 754 mmHg 63%
    01:00 +17°C° 0 mm 2 mps 754 mmHg 64%
    02:00 +16°C° 0 mm 2 mps 754 mmHg 65%
    03:00 +16°C° 0 mm 2 mps 755 mmHg 67%
    04:00 +15°C° 0 mm 2 mps 755 mmHg 68%
    05:00 +16°C° 0 mm 2 mps 755 mmHg 67%
    06:00 +16°C° 0 mm 2 mps 755 mmHg 65%
    07:00 +17°C° 0 mm 3 mps 755 mmHg 64%
    08:00 +19°C° 0 mm 3 mps 755 mmHg 57%
    09:00 +21°C° 0 mm 3 mps 755 mmHg 51%
    10:00 +24°C° 0 mm 3 mps 755 mmHg 44%
    11:00 +25°C° 0 mm 3 mps 755 mmHg 41%
    12:00 +26°C° 0 mm 3 mps 755 mmHg 38%
    13:00 +27°C° 0 mm 3 mps 755 mmHg 35%
    14:00 +27°C° 0 mm 3 mps 755 mmHg 36%
    15:00 +27°C° 0 mm 3 mps 754 mmHg 37%
    16:00 +26°C° 0 mm 3 mps 754 mmHg 37%
    17:00 +25°C° 0 mm 3 mps 755 mmHg 42%
    18:00 +22°C° 0 mm 3 mps 755 mmHg 47%
    19:00 +20°C° 0 mm 3 mps 755 mmHg 52%
    20:00 +19°C° 0 mm 2 mps 755 mmHg 54%
    21:00 +19°C° 0 mm 2 mps 755 mmHg 55%
    22:00 +18°C° 0 mm 2 mps 755 mmHg 57%
    23:00 +18°C° 0 mm 2 mps 756 mmHg 59%

    27 September, Wednesday

    Time Temperature Precipitation Wind Pressure Humidity
    00:00 +17°C° 0 mm 2 mps 756 mmHg 61%
    01:00 +17°C° 0 mm 2 mps 756 mmHg 63%
    02:00 +16°C° 0 mm 2 mps 756 mmHg 64%
    03:00 +16°C° 0 mm 2 mps 756 mmHg 66%
    04:00 +16°C° 0 mm 2 mps 756 mmHg 68%
    05:00 +16°C° 0 mm 2 mps 757 mmHg 67%
    06:00 +16°C° 0 mm 2 mps 757 mmHg 66%
    07:00 +17°C° 0 mm 2 mps 757 mmHg 64%
    08:00 +19°C° 0 mm 2 mps 757 mmHg 57%
    09:00 +21°C° 0 mm 2 mps 758 mmHg 50%
    10:00 +24°C° 0 mm 2 mps 758 mmHg 43%
    11:00 +25°C° 0 mm 2 mps 758 mmHg 41%
    12:00 +25°C° 0 mm 2 mps 758 mmHg 38%
    13:00 +26°C° 0 mm 2 mps 758 mmHg 36%
    14:00 +26°C° 0 mm 2 mps 757 mmHg 36%
    15:00 +26°C° 0 mm 2 mps 757 mmHg 36%
    16:00 +26°C° 0 mm 3 mps 757 mmHg 37%
    17:00 +24°C° 0 mm 2 mps 758 mmHg 41%
    18:00 +23°C° 0 mm 2 mps 758 mmHg 45%
    19:00 +20°C° 0 mm 2 mps 758 mmHg 49%
    20:00 +19°C° 0 mm 2 mps 758 mmHg 49%
    21:00 +19°C° 0 mm 2 mps 758 mmHg 50%
    22:00 +19°C° 0 mm 1 mps 759 mmHg 50%
    23:00 +18°C° 0 mm 1 mps 759 mmHg 51%
    Show more